Orbital Elements at Epoch 2459200.5 (2020-Dec-17.0) TDB
Reference: JPL 14 (heliocentric ecliptic J2000)
Element | Value | Uncertainty (1-sigma) | Units |
e | .1872389457127867 | 7.4227e-08 | |
a | 2.691997296938637 | 1.9347e-08 | au |
q | 2.187950561198175 | 1.9565e-07 | au |
i | 13.02001968860836 | 6.4594e-06 | deg |
node | 5.723004336794021 | 2.2749e-05 | deg |
peri | 352.2629268199811 | 2.6708e-05 | deg |
M | 200.1693055523595 | 1.5458e-05 | deg |
tp | 2459916.755618542288 (2022-Dec-03.25561854) | 7.1587e-05 | TDB |
period | 1613.282251987551 4.42 | 1.7391e-05 4.761e-08 | d yr |
n | .2231475611638836 | 2.4055e-09 | deg/d |
Q | 3.1960440326791 | 2.2969e-08 | au |
|
| | Orbit Determination Parameters
Additional Information
|